[[{"header":{"parameterUnit":"m.s-1","parameterCategory":1,"la1":30.2991,"la2":30.254,"lo1":-89.0895,"lo2":-89.0444,"dy":0.0017,"dx":0.0017,"nx":28,"ny":28,"refTime":"2025-07-28T03:00:00:Z","depth":0,"parameterNumber":2,"parameterNumberName":"U-component_of_WINDS"},"data":[0,0,0,0,0,0,0,0,0,0,0,0,0,0,0,0,0,0,0,0,0,0,0,0,0,0,0,0,0,0,0,0,0,0,0,0,0,0,0,0,0,0,0,0,0,0,0,0,0,0,0,0,0,0,0,0,0,0,-0.7204,-0.7204,0,-0.7162,-0.7161,-0.7161,-0.7177,-0.7178,-0.7179,-0.718,-0.7132,-0.713,-0.7128,0,0,0,0,0,0,0,0,0,0,0,0,0,-0.7294,-0.7292,-0.7204,-0.7204,-0.7203,-0.7162,-0.7161,-0.7161,-0.7177,-0.7179,-0.718,-0.7181,-0.7133,-0.7131,-0.7128,0,0,0,0,0,0,0,0,0,0,0,0,0,-0.7254,-0.7292,-0.7204,-0.7207,-0.7206,-0.7162,-0.7161,-0.7161,-0.7177,-0.7179,-0.718,-0.7181,-0.7134,-0.7131,-0.7128,-0.7077,0,0,-0.7117,-0.7116,0,0,0,0,0,0,0,0,-0.7256,-0.725,-0.7207,-0.7206,-0.7206,-0.7177,-0.7176,-0.7133,-0.7177,-0.7188,-0.718,-0.7182,-0.7146,-0.7141,-0.713,-0.7075,-0.7073,-0.7117,-0.7115,-0.7114,-0.7113,0,0,0,0,0,0,0,-0.7259,-0.7252,-0.7187,-0.7206,-0.7206,-0.7208,-0.7204,-0.7167,-0.7159,-0.7187,-0.7188,-0.7183,-0.7146,-0.7133,-0.7129,-0.7072,-0.7117,-0.7114,-0.7112,-0.7111,-0.6971,-0.6969,0,0,0,0,0,0,-0.7262,-0.7254,-0.7189,-0.7186,-0.7235,-0.7205,-0.7201,-0.7184,-0.7159,-0.7157,-0.7182,-0.7184,-0.7138,-0.7133,-0.7127,-0.7065,-0.7114,-0.7111,-0.7109,-0.6973,-0.6971,-0.6969,0,0,0,0,0,0,-0.7264,-0.7256,-0.719,-0.7221,-0.7212,-0.7202,-0.7184,-0.7183,-0.717,-0.7156,-0.7154,-0.7171,-0.7139,-0.7132,-0.7089,-0.7063,-0.7109,-0.7106,-0.6975,-0.6972,-0.697,-0.694,0,0,0,0,0,0,-0.7267,-0.7257,-0.7239,-0.722,-0.7211,-0.7154,-0.7182,-0.7181,-0.7165,-0.7168,-0.7145,-0.7142,-0.714,-0.7094,-0.7086,-0.706,-0.7104,-0.6977,-0.6974,-0.697,-0.6943,-0.6937,-0.6931,0,0,0,0,0,-0.727,-0.7232,-0.7238,-0.723,-0.7188,-0.7153,-0.7147,-0.7146,-0.7163,-0.7144,-0.7134,-0.7143,-0.7068,-0.709,-0.7081,-0.7053,-0.6979,-0.6974,-0.6971,-0.6946,-0.6938,-0.6932,0,0,0,0,0,0,-0.7247,-0.7229,-0.7236,-0.7191,-0.7174,-0.7156,-0.7132,-0.7139,-0.7115,-0.7118,-0.7116,-0.7111,-0.7066,-0.7056,-0.708,-0.7002,-0.7026,-0.702,-0.701,-0.7002,-0.6996,-0.6999,-0.7101,0,0,0,0,0,-0.7237,-0.7211,-0.7197,-0.7158,-0.7149,-0.7142,-0.7127,-0.7128,-0.7109,-0.7101,-0.7088,-0.7068,-0.7039,-0.7021,-0.6994,-0.6943,-0.6936,-0.6919,-0.6913,-0.6908,-0.6902,-0.6872,-0.6863,-0.6956,-0.6956,-0.6956,0,0,-0.7215,-0.7202,-0.7186,-0.7153,-0.714,-0.7111,-0.7136,-0.7105,-0.7083,-0.7096,-0.7054,-0.7044,-0.7021,-0.6973,-0.6952,-0.6963,-0.6875,-0.6903,-0.6899,-0.6896,-0.6867,-0.6858,-0.685,-0.6953,-0.6954,-0.6954,0,0,-0.716,-0.715,-0.7115,-0.7101,-0.7081,-0.7076,-0.7068,-0.7049,-0.7043,-0.7002,-0.701,-0.6983,-0.6935,-0.6918,-0.6903,-0.6841,-0.6847,-0.6833,-0.68,-0.677,-0.6763,-0.6756,-0.6732,-0.6723,-0.6827,-0.6827,-0.6827,0,-0.7135,-0.7094,-0.7096,-0.7064,-0.7049,-0.7061,-0.7024,-0.701,-0.6981,-0.6969,-0.6983,-0.6922,-0.6908,-0.6855,-0.684,-0.6828,-0.6817,-0.6834,-0.6764,-0.6758,-0.6752,-0.6728,-0.6719,-0.6825,-0.6826,-0.6826,-0.6826,0,-0.7063,-0.7034,-0.7009,-0.6982,-0.6963,-0.693,-0.6925,-0.6906,-0.6908,-0.6901,-0.6858,-0.6841,-0.681,-0.6798,-0.68,-0.6745,-0.6752,-0.6765,-0.6789,-0.6741,-0.6718,-0.6709,-0.6823,-0.6823,-0.6824,-0.6824,0,0,-0.6992,-0.6966,-0.6957,-0.6943,-0.6921,-0.6898,-0.6864,-0.6835,-0.6817,-0.6797,-0.6767,-0.6726,-0.6737,-0.672,-0.672,-0.6694,-0.6643,-0.671,-0.6709,-0.6696,-0.6578,-0.6566,-0.6556,-0.6648,-0.6647,-0.6645,-0.6579,0,-0.6934,-0.6875,-0.6875,-0.682,-0.6792,-0.6802,-0.6772,-0.6754,-0.6747,-0.6721,-0.6712,-0.6682,-0.6701,-0.669,-0.6666,-0.6654,-0.6619,-0.666,-0.6617,-0.6615,-0.662,-0.6545,-0.6533,-0.6471,-0.657,-0.6569,-0.6568,0,-0.6858,-0.6835,-0.6778,-0.6758,-0.6746,-0.6719,-0.6692,-0.6667,-0.6646,-0.6643,-0.6623,-0.6627,-0.659,-0.6617,-0.6564,-0.6592,-0.6574,-0.6566,-0.6564,-0.6557,-0.6587,-0.6534,-0.6451,-0.6441,-0.6555,-0.6556,-0.6557,0,-0.6808,-0.6764,-0.6723,-0.6712,-0.6689,-0.6669,-0.6658,-0.6639,-0.6621,-0.6596,-0.6584,-0.6556,-0.6539,-0.6516,-0.6511,-0.6531,-0.6457,-0.6484,-0.645,-0.645,-0.6432,-0.6433,-0.6343,-0.6426,-0.6426,-0.6426,-0.6426,0,-0.6741,-0.6705,-0.67,-0.6674,-0.6633,-0.6633,-0.6592,-0.6583,-0.6565,-0.6536,-0.6544,-0.6517,-0.6513,-0.6484,-0.648,-0.6435,-0.6429,-0.6423,-0.6421,-0.642,-0.6421,-0.6407,-0.641,-0.6424,-0.6424,-0.6425,-0.6425,0,-0.6678,-0.6674,-0.6629,-0.6611,-0.6606,-0.6576,-0.6559,-0.6534,-0.6527,-0.6491,-0.6482,-0.6471,-0.6438,-0.6431,-0.6391,-0.6388,-0.6334,-0.6339,-0.6341,-0.6341,-0.6306,-0.6309,-0.6202,-0.6187,-0.6282,-0.6282,-0.6281,0,-0.6635,-0.6607,-0.6586,-0.6567,-0.6556,-0.6527,-0.6508,-0.6507,-0.6487,-0.6461,-0.6438,-0.6405,-0.6379,-0.6324,-0.6311,-0.628,-0.6282,-0.6247,-0.6277,-0.6276,-0.6278,-0.6278,-0.6274,-0.624,-0.6239,-0.6238,-0.6238,0,-0.6557,-0.6556,-0.653,-0.6502,-0.648,-0.6459,-0.6438,-0.6422,-0.6418,-0.6395,-0.6361,-0.6341,-0.63,-0.6266,-0.6235,-0.6222,-0.6227,-0.6229,-0.6219,-0.6216,-0.6217,-0.6213,-0.6322,-0.623,-0.6231,-0.6232,-0.6232,-0.6232,-0.65,-0.6475,-0.6456,-0.6426,-0.641,-0.639,-0.6365,-0.6355,-0.6328,-0.6295,-0.6296,-0.6258,-0.6236,-0.6194,-0.6179,-0.6148,-0.6159,-0.6145,-0.6141,-0.6137,-0.6133,-0.6225,-0.6143,-0.6143,-0.6143,-0.6143,-0.6144,0,-0.6421,-0.6409,-0.6381,-0.6352,-0.6328,-0.6338,-0.6315,-0.6293,-0.626,-0.624,-0.6214,-0.6174,-0.6141,-0.6126,-0.6093,-0.6071,-0.6072,-0.6062,-0.6062,-0.6058,-0.6126,-0.6137,-0.6061,-0.6061,-0.6061,-0.6061,-0.6061,-0.6061,-0.6376,-0.6333,-0.633,-0.6278,-0.6266,-0.623,-0.6215,-0.6196,-0.618,-0.6135,-0.6108,-0.6099,-0.608,-0.6045,-0.6015,-0.6011,-0.5997,-0.5985,-0.5982,-0.6045,-0.6054,-0.6062,-0.6071,-0.5982,-0.5982,-0.5916,-0.5915,-0.5915]},{"header":{"parameterUnit":"m.s-1","parameterCategory":1,"la1":30.2991,"la2":30.254,"lo1":-89.0895,"lo2":-89.0444,"dy":0.0017,"dx":0.0017,"nx":28,"ny":28,"refTime":"2025-07-28T03:00:00:Z","depth":0,"parameterNumber":3,"parameterNumberName":"V-component_of_WINDS"},"data":[0,0,0,0,0,0,0,0,0,0,0,0,0,0,0,0,0,0,0,0,0,0,0,0,0,0,0,0,0,0,0,0,0,0,0,0,0,0,0,0,0,0,0,0,0,0,0,0,0,0,0,0,0,0,0,0,0,0,-1.1701,-1.1697,0,-1.1345,-1.1341,-1.1337,-1.1232,-1.1234,-1.1236,-1.1238,-1.0862,-1.085,-1.0839,0,0,0,0,0,0,0,0,0,0,0,0,0,-1.228,-1.227,-1.1702,-1.1697,-1.1693,-1.1346,-1.1341,-1.1336,-1.1232,-1.1234,-1.1236,-1.1239,-1.0866,-1.0852,-1.0838,0,0,0,0,0,0,0,0,0,0,0,0,0,-1.1986,-1.2266,-1.1702,-1.1599,-1.1586,-1.1347,-1.1341,-1.1335,-1.1231,-1.1234,-1.1237,-1.124,-1.087,-1.0853,-1.0836,-1.0669,0,0,-1.0782,-1.0774,0,0,0,0,0,0,0,0,-1.2003,-1.1965,-1.1619,-1.1606,-1.1591,-1.1336,-1.1407,-1.1111,-1.1231,-1.1366,-1.1238,-1.1241,-1.1017,-1.0987,-1.0914,-1.0652,-1.0636,-1.078,-1.0769,-1.0762,-1.0757,0,0,0,0,0,0,0,-1.2024,-1.198,-1.156,-1.1614,-1.1597,-1.1567,-1.1528,-1.135,-1.1179,-1.1354,-1.1346,-1.1306,-1.1009,-1.0931,-1.0904,-1.063,-1.0781,-1.0765,-1.0754,-1.0747,-1.0212,-1.0208,0,0,0,0,0,0,-1.2063,-1.1998,-1.1571,-1.155,-1.1809,-1.1554,-1.1511,-1.1415,-1.1181,-1.1148,-1.1304,-1.1302,-1.096,-1.0925,-1.089,-1.0679,-1.0762,-1.0745,-1.0735,-1.0215,-1.0211,-1.0207,0,0,0,0,0,0,-1.2076,-1.2026,-1.1586,-1.1771,-1.1713,-1.1541,-1.1434,-1.1406,-1.1328,-1.1143,-1.1111,-1.1256,-1.0961,-1.0915,-1.0725,-1.0664,-1.0737,-1.0721,-1.022,-1.0214,-1.0209,-1.0256,0,0,0,0,0,0,-1.2093,-1.2032,-1.1969,-1.1771,-1.1704,-1.143,-1.143,-1.1397,-1.1299,-1.1294,-1.1089,-1.1058,-1.0959,-1.0752,-1.0708,-1.0641,-1.0707,-1.0224,-1.0217,-1.0211,-1.0259,-1.0253,-1.0248,0,0,0,0,0,-1.2114,-1.1995,-1.1967,-1.1916,-1.1623,-1.1427,-1.1388,-1.1281,-1.1295,-1.1229,-1.111,-1.1064,-1.0679,-1.0734,-1.0683,-1.061,-1.0228,-1.0219,-1.0211,-1.0262,-1.0254,-1.0248,0,0,0,0,0,0,-1.2186,-1.1967,-1.1933,-1.1747,-1.1607,-1.141,-1.1324,-1.1276,-1.1126,-1.1127,-1.0996,-1.0951,-1.077,-1.0671,-1.0736,-1.0436,-1.0451,-1.0433,-1.0507,-1.0499,-1.0493,-1.052,-1.0693,0,0,0,0,0,-1.2181,-1.2045,-1.1859,-1.1712,-1.1644,-1.1496,-1.1407,-1.1337,-1.1185,-1.1124,-1.0991,-1.0842,-1.0687,-1.0587,-1.0435,-1.0245,-1.0197,-1.017,-1.0164,-1.016,-1.0145,-1.0035,-1.002,-1.018,-1.0181,-1.0181,0,0,-1.2167,-1.2031,-1.1952,-1.1723,-1.1606,-1.1464,-1.1447,-1.1297,-1.1189,-1.1099,-1.0913,-1.0811,-1.0635,-1.0445,-1.0354,-1.0357,-1.009,-1.015,-1.0148,-1.0134,-1.0025,-1.001,-0.9997,-1.0175,-1.0176,-1.0177,0,0,-1.207,-1.1954,-1.1819,-1.1703,-1.1529,-1.1431,-1.1399,-1.1209,-1.1139,-1.095,-1.088,-1.0748,-1.0484,-1.0362,-1.0266,-1.0123,-1.0075,-1.0077,-1.0046,-0.994,-0.9928,-0.9916,-0.9863,-0.9846,-1.0063,-1.0063,-1.0063,0,-1.2074,-1.1861,-1.1754,-1.1608,-1.1508,-1.1425,-1.1285,-1.1176,-1.0959,-1.089,-1.0897,-1.0565,-1.0441,-1.022,-1.0186,-1.0111,-1.0067,-1.0099,-0.9939,-0.9926,-0.9913,-0.9861,-0.9841,-1.0064,-1.0064,-1.0064,-1.0064,0,-1.1873,-1.1727,-1.1637,-1.1434,-1.1324,-1.1182,-1.105,-1.095,-1.089,-1.0791,-1.0599,-1.0448,-1.0263,-1.0205,-1.0143,-0.9974,-0.9981,-0.9966,-0.9978,-0.9901,-0.9849,-0.9829,-1.0066,-1.0065,-1.0065,-1.0065,0,0,-1.1809,-1.1551,-1.1519,-1.1426,-1.1227,-1.1109,-1.0962,-1.0785,-1.0701,-1.0554,-1.0425,-1.0205,-1.0189,-1.008,-1.0003,-0.9911,-0.9805,-0.9905,-0.9899,-0.989,-0.9607,-0.9619,-0.9598,-0.9773,-0.9769,-0.9765,-0.9621,0,-1.1684,-1.1423,-1.1323,-1.1107,-1.0968,-1.0888,-1.0759,-1.0621,-1.0525,-1.039,-1.0282,-1.0127,-1.0119,-1.0052,-0.9958,-0.9838,-0.9746,-0.9847,-0.9647,-0.9642,-0.9692,-0.9571,-0.9583,-0.9454,-0.96,-0.9597,-0.9594,0,-1.1504,-1.136,-1.1132,-1.0951,-1.0889,-1.0775,-1.0604,-1.0478,-1.0319,-1.0255,-1.0134,-1.0063,-0.9902,-0.9927,-0.9701,-0.9773,-0.9685,-0.9614,-0.9606,-0.9581,-0.9612,-0.9541,-0.9411,-0.9391,-0.9562,-0.9565,-0.9567,0,-1.1478,-1.1226,-1.1057,-1.098,-1.0764,-1.0686,-1.0592,-1.0436,-1.0336,-1.0186,-1.0119,-0.995,-0.9857,-0.9727,-0.9611,-0.964,-0.9395,-0.9411,-0.9334,-0.9337,-0.9284,-0.9288,-0.9136,-0.9232,-0.9232,-0.9232,-0.9233,0,-1.1348,-1.1211,-1.1043,-1.0938,-1.0781,-1.0666,-1.0513,-1.0412,-1.0275,-1.0146,-1.0066,-0.9946,-0.9802,-0.9663,-0.9571,-0.9397,-0.9355,-0.9296,-0.9273,-0.9302,-0.931,-0.9241,-0.9246,-0.9227,-0.9228,-0.9229,-0.923,0,-1.1291,-1.1173,-1.0983,-1.0797,-1.0746,-1.0639,-1.0476,-1.037,-1.0271,-1.011,-1.0065,-0.9908,-0.974,-0.9613,-0.9394,-0.9332,-0.9146,-0.9123,-0.9201,-0.9189,-0.9119,-0.9126,-0.8915,-0.888,-0.9003,-0.9002,-0.9001,0,-1.1215,-1.1109,-1.0912,-1.0823,-1.073,-1.0587,-1.0485,-1.0367,-1.0264,-1.0075,-0.9991,-0.9818,-0.9674,-0.9409,-0.9273,-0.9104,-0.9074,-0.9012,-0.9048,-0.9081,-0.907,-0.9078,-0.9065,-0.9006,-0.9006,-0.9005,-0.9005,0,-1.1092,-1.104,-1.0899,-1.0737,-1.062,-1.0486,-1.0349,-1.028,-1.0136,-1.0024,-0.9854,-0.9742,-0.952,-0.9349,-0.9167,-0.9065,-0.9009,-0.8995,-0.8968,-0.8995,-0.9044,-0.9015,-0.9186,-0.9,-0.9,-0.9,-0.9001,-0.9001,-1.1021,-1.0922,-1.0769,-1.0614,-1.0501,-1.0376,-1.0267,-1.0156,-1.0014,-0.9827,-0.9765,-0.9588,-0.943,-0.9181,-0.9078,-0.8935,-0.8934,-0.8895,-0.8885,-0.8877,-0.8878,-0.907,-0.8902,-0.8902,-0.8902,-0.8902,-0.8902,0,-1.0892,-1.079,-1.065,-1.0464,-1.0342,-1.0306,-1.0153,-1.0052,-0.9899,-0.9759,-0.962,-0.9423,-0.9256,-0.9108,-0.8934,-0.8848,-0.8818,-0.8806,-0.881,-0.8787,-0.889,-0.893,-0.8834,-0.8834,-0.8834,-0.8834,-0.8834,-0.8834,-1.081,-1.0641,-1.0571,-1.0343,-1.024,-1.0071,-0.9987,-0.987,-0.9757,-0.9543,-0.9406,-0.9312,-0.9167,-0.8982,-0.8826,-0.8786,-0.8725,-0.8719,-0.8673,-0.8771,-0.878,-0.8788,-0.8825,-0.8707,-0.8707,-0.858,-0.8579,-0.8578]}]]